Regional Weather Roundup
Issued by NWS Northern Indiana

Home | Current Version | Previous Version | Graphics & Text | Print | Product List | Glossary On
Versions: 1 2 3 4 5 6 7 8 9 10 11 12 13 14 15 16 17 18 19 20 21 22 23 24 25 26 27 28 29 30 31 32 33 34 35 36 37 38 39 40 41 42 43 44 45 46 47 48 49 50
000
ASUS43 KIWX 201601
RWRIWX

KIWX WEATHER ROUNDUP
NATIONAL WEATHER SERVICE NORTHERN INDIANA
1200 PM EDT SUN AUG 20 2017

NOTE: "FAIR" INDICATES FEW OR NO CLOUDS BELOW 12,000 FEET WITH NO
SIGNIFICANT WEATHER AND/OR OBSTRUCTIONS TO VISIBILITY.

* THESE STATIONS ARE NOT UNDER NWS QUALITY CONTROL. THEY ALSO MAY NOT
  REPORT WEATHER SUCH AS PRECIPITATION OR FOG.

INZ001>027-201700-
NORTHERN INDIANA

CITY           SKY/WX    TMP DP  RH WIND       PRES   REMARKS
GARY*          PTSUNNY   82  63  51 S12       30.07S
SOUTH BEND     SUNNY     81  62  52 S9        30.09S
GOSHEN         SUNNY     79  61  53 SW6       30.10R
MONTICELLO*    SUNNY     80  68  65 SW3       30.07S
FORT WAYNE     MOSUNNY   81  65  58 S8        30.10S
PERU/GRISSOM   SUNNY     81  70  68 W5        30.07F

$$
INZ028>050-201700-
CENTRAL INDIANA

CITY           SKY/WX    TMP DP  RH WIND       PRES   REMARKS
LAFAYETTE      CLOUDY    82  69  64 S7        30.06S
KOKOMO*        SUNNY     81  70  69 CALM      30.09S
MUNCIE*        SUNNY     83  68  60 VRB3      30.09S
INDIANAPOLIS   MOSUNNY   84  66  54 CALM      30.08R

$$
MIZ043>046-050>051-056>058-064>065-071>073-077>080-201700-
SOUTHWEST LOWER MICHIGAN

CITY           SKY/WX    TMP DP  RH WIND       PRES   REMARKS
BATTLE CREEK   CLOUDY    79  62  56 S10       30.11R
BENTON HARBOR  MOSUNNY   81  59  47 VRB6      30.08R
COLDWATER*     SUNNY     79  59  49 S7        30.11R
HILLSDALE*     SUNNY     77  61  57 SW7       30.13R
HOLLAND        MOSUNNY   79  61  53 SW8       30.09R
GRAND RAPIDS   CLOUDY    78  56  46 SW7       30.09R
KALAMAZOO      SUNNY     81  59  47 S9        30.10R
STURGIS*       SUNNY     79  62  57 S10       30.10S
THREE RIVERS*  FAIR      81  61  50 S7        30.10S

$$
OHZ001>008-015>018-024>025-201700-
NORTHWEST OHIO

CITY           SKY/WX    TMP DP  RH WIND       PRES   REMARKS
DEFIANCE       SUNNY     79  62  56 S5        30.12R
FINDLAY        SUNNY     81  62  52 S9        30.10R
TOLEDO EXPRESS SUNNY     79  62  56 S8        30.11R
TOLEDO METCALF SUNNY     80  61  52 SW8       30.11S
LIMA           MOSUNNY   82  67  60 S9        30.11R

$$
AND FOR LAKE MICHIGAN COASTAL AND OPEN LAKE BUOY OBSERVATIONS

STATION/POSITION TEMP    WIND        PRES    VSBY  WAVE
                 AIR SEA DIR/SP/G                  HT/PER
                 (F)     (DEG/KT/KT) (MB)    (MI)  (FT/S)
CALUMET HARBOR    80     170/  6/ 12 1017.3R
MICHIGAN CITY     77     180/  9/ 10   N/A
BURNS HARBOR      79     180/  6/ 11 1018.3F
SAINT JOSEPH      78     210/  5/  6 1019.6
SOUTH LAKE BUOY   72 71  190/ 10/ 12 1017.8          1/ 3
4 MI NW BRIDGMAN  76 75  200/  6/ 10 1018.3R         1
MICHIGAN CITY     77 74  190/  6/  8   N/A           1

$$
&&




USA.gov is the U.S. government's official web portal to all federal, state and local government web resources and services.